TimePDT,TemperatureF,Dew PointF,Humidity,Sea Level PressureIn,VisibilityMPH,Wind Direction,Wind SpeedMPH,Gust SpeedMPH,PrecipitationIn,Events,Conditions,WindDirDegrees,DateUTC
12:53 AM,80.1,36.0,20,29.71,10.0,Calm,Calm,-,N/A,,Clear,0,2013-04-29 07:53:00
1:53 AM,77.0,39.0,25,29.70,10.0,NNE,3.5,-,N/A,,Clear,30,2013-04-29 08:53:00
2:53 AM,75.9,39.9,27,29.70,10.0,Calm,Calm,-,N/A,,Clear,0,2013-04-29 09:53:00
3:53 AM,75.9,39.0,26,29.69,10.0,Calm,Calm,-,N/A,,Clear,0,2013-04-29 10:53:00
4:53 AM,75.0,37.0,25,29.70,10.0,Calm,Calm,-,N/A,,Clear,0,2013-04-29 11:53:00
5:53 AM,70.0,43.0,38,29.71,10.0,Calm,Calm,-,N/A,,Clear,0,2013-04-29 12:53:00
6:53 AM,73.0,41.0,31,29.73,10.0,Calm,Calm,-,N/A,,Clear,0,2013-04-29 13:53:00
7:53 AM,77.0,39.9,26,29.73,10.0,Calm,Calm,-,N/A,,Clear,0,2013-04-29 14:53:00
8:53 AM,84.9,39.0,20,29.72,10.0,Variable,3.5,-,N/A,,Clear,0,2013-04-29 15:53:00
9:53 AM,91.0,30.0,11,29.72,10.0,Calm,Calm,-,N/A,,Clear,0,2013-04-29 16:53:00
10:53 AM,97.0,26.1,8,29.71,10.0,Calm,Calm,-,N/A,,Clear,0,2013-04-29 17:53:00
11:53 AM,99.0,25.0,7,29.70,10.0,Calm,Calm,-,N/A,,Clear,0,2013-04-29 18:53:00
12:53 PM,100.9,26.1,7,29.67,10.0,Calm,Calm,-,N/A,,Clear,0,2013-04-29 19:53:00
1:53 PM,104.0,24.1,6,29.65,10.0,WNW,13.8,20.7,N/A,,Clear,300,2013-04-29 20:53:00
2:53 PM,104.0,23.0,6,29.62,10.0,NNW,9.2,25.3,N/A,,Clear,340,2013-04-29 21:53:00
3:53 PM,102.9,26.1,7,29.60,10.0,West,9.2,19.6,N/A,,Clear,270,2013-04-29 22:53:00
4:53 PM,100.9,28.0,8,29.58,10.0,WNW,6.9,19.6,N/A,,Clear,290,2013-04-29 23:53:00
5:53 PM,100.0,28.9,8,29.57,10.0,NW,19.6,25.3,N/A,,Clear,320,2013-04-30 00:53:00
6:53 PM,97.0,27.0,8,29.57,10.0,NW,16.1,23.0,N/A,,Clear,320,2013-04-30 01:53:00
7:53 PM,93.0,32.0,12,29.57,10.0,NW,17.3,24.2,N/A,,Clear,320,2013-04-30 02:53:00
8:53 PM,89.1,39.0,17,29.59,10.0,NNW,18.4,27.6,N/A,,Clear,340,2013-04-30 03:53:00
9:53 PM,88.0,34.0,15,29.60,10.0,West,4.6,-,N/A,,Clear,270,2013-04-30 04:53:00
10:53 PM,81.0,42.1,25,29.61,10.0,SSE,5.8,-,N/A,,Clear,150,2013-04-30 05:53:00
11:53 PM,80.1,44.1,28,29.62,10.0,Calm,Calm,-,N/A,,Clear,0,2013-04-30 06:53:00